TimeEST,TemperatureF,Dew PointF,Humidity,Sea Level PressureIn,VisibilityMPH,Wind Direction,Wind SpeedMPH,Gust SpeedMPH,PrecipitationIn,Events,Conditions,WindDirDegrees,DateUTC
12:54 AM,42.1,35.1,76,29.90,9.0,NNW,8.1,-,0.00,Rain,Light Rain,340,2012-11-08 05:54:00
1:46 AM,41.0,35.6,81,29.89,9.0,NW,8.1,-,0.00,Rain,Light Rain,320,2012-11-08 06:46:00
1:54 AM,41.0,35.1,79,29.89,9.0,NW,8.1,-,0.00,Rain,Light Rain,310,2012-11-08 06:54:00
2:54 AM,39.9,34.0,79,29.89,10.0,NW,9.2,-,0.00,,Overcast,310,2012-11-08 07:54:00
3:06 AM,39.2,33.8,81,29.89,10.0,NW,10.4,-,N/A,,Mostly Cloudy,320,2012-11-08 08:06:00
3:32 AM,39.2,33.8,81,29.89,10.0,NW,9.2,-,N/A,,Mostly Cloudy,320,2012-11-08 08:32:00
3:54 AM,41.0,33.1,73,29.90,10.0,NW,10.4,-,N/A,,Overcast,320,2012-11-08 08:54:00
4:54 AM,41.0,32.0,70,29.91,10.0,NNW,10.4,17.3,N/A,,Mostly Cloudy,330,2012-11-08 09:54:00
5:01 AM,41.0,32.0,70,29.91,10.0,NNW,11.5,-,N/A,,Mostly Cloudy,340,2012-11-08 10:01:00
5:54 AM,41.0,30.0,65,29.92,10.0,NW,6.9,-,N/A,,Overcast,320,2012-11-08 10:54:00
6:54 AM,41.0,28.9,62,29.94,10.0,NW,5.8,-,N/A,,Overcast,310,2012-11-08 11:54:00
7:54 AM,44.1,27.0,51,29.96,10.0,WNW,8.1,-,N/A,,Overcast,300,2012-11-08 12:54:00
8:54 AM,46.0,24.1,42,29.96,10.0,NW,11.5,-,N/A,,Overcast,320,2012-11-08 13:54:00
9:54 AM,48.0,23.0,37,29.97,10.0,NW,11.5,-,N/A,,Overcast,310,2012-11-08 14:54:00
10:54 AM,53.1,19.9,27,29.95,10.0,NW,9.2,17.3,N/A,,Clear,320,2012-11-08 15:54:00
11:54 AM,57.2,17.6,21,29.93,10.0,NW,11.5,20.7,N/A,,Clear,310,2012-11-08 16:54:00
12:54 PM,57.9,18.0,21,29.91,10.0,WNW,12.7,-,N/A,,Clear,300,2012-11-08 17:54:00
1:54 PM,59.0,10.0,14,29.91,10.0,NW,17.3,23.0,N/A,,Clear,310,2012-11-08 18:54:00
2:54 PM,57.9,10.9,16,29.90,10.0,WNW,13.8,19.6,N/A,,Clear,290,2012-11-08 19:54:00
3:54 PM,57.9,10.0,15,29.91,10.0,NW,8.1,-,N/A,,Clear,310,2012-11-08 20:54:00
4:54 PM,54.0,10.0,17,29.93,10.0,NW,5.8,-,N/A,,Clear,310,2012-11-08 21:54:00
5:54 PM,51.1,12.0,21,29.96,10.0,NW,6.9,-,N/A,,Clear,320,2012-11-08 22:54:00
6:54 PM,48.9,12.0,23,29.99,10.0,NNW,3.5,-,N/A,,Clear,330,2012-11-08 23:54:00
7:54 PM,48.0,12.9,24,30.01,10.0,NNW,4.6,-,N/A,,Clear,340,2012-11-09 00:54:00
8:54 PM,48.0,16.0,28,30.03,10.0,NW,8.1,-,N/A,,Clear,310,2012-11-09 01:54:00
9:54 PM,46.0,18.0,33,30.04,10.0,NW,6.9,-,N/A,,Clear,310,2012-11-09 02:54:00
10:54 PM,45.0,21.0,39,30.05,10.0,NW,6.9,-,N/A,,Clear,310,2012-11-09 03:54:00
11:54 PM,45.0,23.0,42,30.06,10.0,NW,6.9,-,N/A,,Clear,310,2012-11-09 04:54:00